Hourly Data Report for June 29, 2021

MANIWAKI AIRPORT
QUEBEC
Current Station Operator: ECCC - MSC

46°16'29.000" N
75°59'31.000" W
199.70 m
7034482
71721
WMJ

Download Data

Hourly Data (June 2021)
Hourly Data Report for June 29, 2021
TIME
LST
Temp Definition
°C
Dew Point Definition
°C
Rel Hum Definition
%
Precip. Amount Definition
mm

Wind Dir Definition
10's deg

Wind Spd Definition
km/h
Visibility Definition
km
Stn Press Definition
kPa
Hmdx Definition


Wind Chill Definition


Weather Definition


00:00 17.7 17.4 98 0.0 23 3   99.58     LegendNANA
01:00 18.5 17.9 97 0.0 26 3   99.60     LegendNANA
02:00 19.0 18.7 98 0.0 28 4   99.61     LegendNANA
03:00 16.8 16.4 97 0.0   0   99.62     LegendNANA
04:00 16.7 16.5 99 0.0 3 3   99.63     LegendNANA
05:00 17.1 16.9 99 0.0 19 2   99.66     LegendNANA
06:00 18.8 18.6 99 0.0 19 2   99.69     LegendNANA
07:00 20.4 19.5 94 0.0 20 3   99.70 28   LegendNANA
08:00 21.8 19.3 86 0.0 23 8   99.71 29   LegendNANA
09:00 22.8 18.6 77 0.0 21 9   99.67 29   LegendNANA
10:00 23.8 18.7 73 0.0 23 10   99.66 30   LegendNANA
11:00 24.8 19.4 72 0.0 22 10   99.66 32   LegendNANA
12:00 23.5 18.9 75 0.0 22 16   99.67 30   LegendNANA
13:00 22.4 20.3 88 0.4 24 9   99.62 30   LegendNANA
14:00 24.2 19.4 75 0.3 25 13   99.58 31   LegendNANA
15:00 24.2 19.3 74 0.0 22 7   99.51 31   LegendNANA
16:00 24.4 18.6 70 0.0 22 12   99.47 31   LegendNANA
17:00 23.6 18.6 74 0.0 20 10   99.45 30   LegendNANA
18:00 22.7 19.1 80 0.0 22 11   99.44 30   LegendNANA
19:00 21.9 18.5 81 0.0 21 10   99.43 28   LegendNANA
20:00 21.0 18.5 86 0.0 21 6   99.36 27   LegendNANA
21:00 20.4 18.8 91 0.0   0   99.32 27   LegendNANA
22:00 19.6 18.9 96 0.1 9 2   99.24     LegendNANA
23:00 19.4 18.9 97 0.4 20 4   99.20     LegendNANA

Notes on Data Quality.

Legend

  • E = Estimated
  • M = Missing
  • NA = Not Available*
  • [empty] = Indicates an unobserved value
Date modified: